Torna al catalogo

STARLINK-37470

AttivoComunicazioniSSO
NORAD 68820·PAYLOAD·🇺🇸 United States

Lanciato Apr 23, 2026 da Vandenberg Space Force Base

Loading…

Prossimi Passaggi (prossime 24 ore)

TLE

AggiornatoSource: CelesTrak SupGP

Epoca: Sep 15, 2026, 04:32 UTC

1 68820C 26089U   26258.18937500 -.00058841  00000+0 -18266-2 0  2585
2 68820  97.2851 104.0749 0002295  90.6842  73.5535 15.33466921    19

Traccia STARLINK-37470 in tempo reale con AllMySat

Download on the App Store